Content
SEND FEEDBACK

Daily
Averages
Monthly
Summary
Mexico

PLAYA DEL CARMEN, QUINTANA ROO


Home > North America > Mexico > Quintana Roo
Elevation: 9 meters     Latitude: 20 38N     Longitude: 087 04W

WEATHER
 
SELECT A DAY
Number of Records: 204,428;   Date Range: 2/21/06 - 11/26/14
 
SHARE

PRINT THIS DATA

[ ← Previous Day ]
WEATHER ALMANAC - 18 OCTOBER, 2013
[ Next Day → ]
[ °F ]   °C
Weather ElementAverageHighLow
Temperature26.7 °C32 °C (12:55 pm)22 °C (1:35 am)
Dewpoint4.8 °C25 °C (9:35 pm) (7:00 pm)
Humidity56.8 %100 % (9:35 pm)33 % (5:35 pm)
Barometer1014.9 hPa1016.9 hPa (9:55 am)1013.5 hPa (3:35 pm)
Wind Speed4.7 km/h14.8 km/h (11:15 am)
Weather ElementAverage
Visibility15.8 km
Wind DirectionE (89.3 °)

Weather ElementTotal
Precipitation---
Cooling Degree Days8.7 (Base 18.3)
Growing Degree Days17 (Base 10)
Averaged from 71 records on 18 October, 2013
WEATHER CONDITIONS BREAKOUT
WIND DIRECTION BREAKOUT
WEATHER BY HOUR - 18 OCTOBER, 2013
[ °F ]   °C
Local TimeTemperatureDewpointHumidityBarometerVisibilityWind DirectionWind SpeedGust SpeedPrecipitationEventsConditions
12:35 AM24 °C20 °C78 %1014.9 hPa16.1 kmCalmClear
12:55 AM23 °C19 °C78 %1014.6 hPa16.1 kmCalmClear
1:15 AM23 °C20 °C83 %1014.6 hPa16.1 kmCalmClear
1:35 AM22 °C-17.8 °C1014.6 hPa16.1 kmCalmClear
1:55 AM22 °C-17.8 °C1014.6 hPa16.1 kmCalmClear
2:15 AM22 °C-17.8 °C1014.6 hPa16.1 kmENE (70°)5.6 km/hScattered Clouds
2:35 AM22 °C-17.8 °C1014.2 hPa16.1 kmEast (90°)5.6 km/hClear
2:55 AM22 °C-17.8 °C1014.2 hPa16.1 kmEast (100°)5.6 km/hClear
3:15 AM23 °C-17.8 °C1014.2 hPa16.1 kmEast (100°)5.6 km/hClear
3:35 AM23 °C-17.8 °C1014.2 hPa16.1 kmESE (110°)5.6 km/hClear
3:55 AM23 °C-17.8 °C1014.2 hPa16.1 kmSE (130°)7.4 km/hClear
4:15 AM23 °C-17.8 °C1014.2 hPa16.1 kmSE (130°)7.4 km/hClear
4:35 AM23 °C-17.8 °C1014.2 hPa16.1 kmESE (120°)7.4 km/hClear
4:55 AM23 °C-17.8 °C1014.2 hPa16.1 kmSE (130°)5.6 km/hClear
5:15 AM23 °C-17.8 °C1014.6 hPa16.1 kmCalmClear
5:35 AM22 °C-17.8 °C1014.6 hPa16.1 kmESE (120°)5.6 km/hClear
5:55 AM22 °C-17.8 °C1014.6 hPa16.1 kmESE (120°)5.6 km/hClear
6:15 AM22 °C-17.8 °C1014.9 hPa16.1 kmCalmClear
6:35 AM22 °C-17.8 °C1014.9 hPa16.1 kmCalmScattered Clouds
6:55 AM22 °C-17.8 °C1015.2 hPa16.1 kmCalmScattered Clouds
7:15 AM22 °C-17.8 °C1015.2 hPa16.1 kmCalmClear
7:35 AM22 °C-17.8 °C1015.6 hPa8 kmCalmHaze
7:55 AM22 °C-17.8 °C1015.6 hPa11.3 kmCalmClear
8:15 AM23 °C-17.8 °C1015.9 hPa11.3 kmCalmScattered Clouds
8:35 AM24 °C-17.8 °C1016.3 hPa16.1 kmESE (120°)5.6 km/hScattered Clouds
8:55 AM25 °C-17.8 °C1016.6 hPa16.1 kmESE (120°)5.6 km/hScattered Clouds
9:15 AM25 °C-17.8 °C1016.6 hPa16.1 kmSE (130°)5.6 km/hClear
9:35 AM26 °C22 °C78 %1016.6 hPa16.1 kmSE (140°)5.6 km/hScattered Clouds
9:55 AM27 °C22 °C74 %1016.9 hPa16.1 kmSE (130°)9.3 km/hMostly Cloudy
10:15 AM28 °C21 °C66 %1016.9 hPa16.1 kmSE (130°)7.4 km/hScattered Clouds
10:35 AM28 °C20 °C62 %1016.9 hPa16.1 kmSSE (160°)11.1 km/hClear
10:55 AM29 °C20 °C58 %1016.9 hPa16.1 kmSSE (150°)11.1 km/hClear
11:15 AM29 °C19 °C55 %1016.6 hPa16.1 kmESE (120°)14.8 km/hClear
11:35 AM30 °C19 °C51 %1016.6 hPa16.1 kmSSE (150°)13 km/hClear
11:55 AM30 °C18 °C48 %1016.6 hPa16.1 kmSE (130°)14.8 km/hClear
12:15 PM31 °C18 °C46 %1016.3 hPa16.1 kmSSE (160°)5.6 km/hClear
12:35 PM31 °C17 °C43 %1015.9 hPa16.1 kmESE (110°)7.4 km/hClear
12:55 PM32 °C18 °C43 %1015.6 hPa16.1 kmSE (140°)11.1 km/hClear
1:15 PM32 °C17 °C40 %1015.2 hPa16.1 kmESE (110°)7.4 km/hScattered Clouds
1:35 PM31 °C16 °C40 %1014.9 hPa16.1 kmSSE (150°)7.4 km/hScattered Clouds
1:55 PM32 °C15 °C36 %1014.6 hPa16.1 kmSSE (150°)11.1 km/hClear
2:15 PM32 °C16 °C38 %1014.2 hPa16.1 kmSSE (150°)11.1 km/hClear
2:35 PM32 °C15 °C36 %1013.9 hPa16.1 kmSSE (160°)7.4 km/hScattered Clouds
2:55 PM31 °C16 °C40 %1013.9 hPa16.1 kmEast (80°)5.6 km/hScattered Clouds
3:15 PM32 °C16 °C38 %1013.9 hPa16.1 kmESE (110°)7.4 km/hMostly Cloudy
3:35 PM32 °C15 °C36 %1013.5 hPa16.1 kmESE (120°)5.6 km/hScattered Clouds
3:55 PM32 °C16 °C38 %1013.5 hPa16.1 kmEast (100°)5.6 km/hClear
4:15 PM32 °C15 °C36 %1013.5 hPa16.1 kmEast (90°)7.4 km/hClear
4:35 PM31 °C16 °C40 %1013.5 hPa16.1 kmCalmClear
4:55 PM31 °C16 °C40 %1013.5 hPa16.1 kmESE (110°)5.6 km/hScattered Clouds
5:15 PM31 °C15 °C38 %1013.5 hPa16.1 kmSSE (150°)7.4 km/hMostly Cloudy
5:35 PM32 °C14 °C33 %1013.5 hPa16.1 kmCalmScattered Clouds
5:55 PM32 °C14 °C33 %1013.5 hPa16.1 kmCalmScattered Clouds
6:15 PM31 °C17 °C43 %1013.5 hPa16.1 kmSE (140°)5.6 km/hMostly Cloudy
6:35 PM31 °C17 °C43 %1013.9 hPa16.1 kmCalmOvercast
6:55 PM29 °C18 °C51 %1013.9 hPa16.1 kmCalmOvercast
7:15 PM28 °C20 °C62 %1014.2 hPa16.1 kmWest (260°)9.3 km/hScattered Clouds
7:35 PM28 °C20 °C62 %1014.6 hPa16.1 kmWest (260°)7.4 km/hMostly Cloudy
7:55 PM28 °C20 °C62 %1014.6 hPa16.1 kmWNW (300°)7.4 km/hScattered Clouds
8:15 PM28 °C21 °C66 %1014.9 hPa16.1 kmNNW (330°)5.6 km/hScattered Clouds
8:35 PM27 °C22 °C74 %1014.9 hPa16.1 kmNW (310°)5.6 km/hClear
8:55 PM27 °C22 °C74 %1014.9 hPa16.1 kmCalmScattered Clouds
9:15 PM27 °C21 °C70 %1015.2 hPa16.1 kmCalmClear
9:35 PM25 °C25 °C100 %1015.2 hPa16.1 kmCalmClear
9:55 PM25 °C22 °C83 %1015.6 hPa16.1 kmNE (50°)5.6 km/hClear
10:15 PM25 °C24 °C94 %1015.6 hPa16.1 kmCalmClear
10:35 PM25 °C24 °C94 %1015.6 hPa16.1 kmCalmClear
10:55 PM25 °C24 °C94 %1015.6 hPa16.1 kmCalmClear
11:15 PM25 °C-17.8 °C1015.6 hPa16.1 kmCalmClear
11:35 PM24 °C-17.8 °C1015.6 hPa16.1 kmEast (100°)5.6 km/hClear
11:55 PM25 °C-17.8 °C1015.6 hPa16.1 kmCalmClear
Hourly data recorded from KPCM, located 0 kilometers away from Playa del Carmen, Quintana Roo







STORIES FROM OUR PARTNERS